Time,TemperatureF,DewpointF,PressureIn,WindDirection,WindDirectionDegrees,WindSpeedMPH,WindSpeedGustMPH,Humidity,HourlyPrecipIn,Conditions,Clouds,dailyrainin,SoftwareType,DateUTC
2013-10-06 00:00:00,58.4,55.5,30.08,NW,305,0.0,1.3,89,0.00,n/a,n/a,-99.99,Henriksen +1-Wire,2013-10-06 04:00:00,
2013-10-06 00:02:00,58.4,55.5,30.08,North,356,0.0,1.3,90,0.00,n/a,n/a,-99.99,Henriksen +1-Wire,2013-10-06 04:02:00,
2013-10-06 00:04:00,58.4,55.5,30.08,NNW,339,0.9,1.9,90,0.00,n/a,n/a,-99.99,Henriksen +1-Wire,2013-10-06 04:04:00,
2013-10-06 00:06:00,58.4,55.3,30.08,NNW,338,1.0,1.9,89,0.00,n/a,n/a,-99.99,Henriksen +1-Wire,2013-10-06 04:06:00,
2013-10-06 00:08:00,58.4,55.2,30.08,NNW,338,0.9,1.9,88,0.00,n/a,n/a,-99.99,Henriksen +1-Wire,2013-10-06 04:08:00,
2013-10-06 00:12:00,58.4,55.1,30.08,NW,319,0.2,1.9,88,0.00,n/a,n/a,-99.99,Henriksen +1-Wire,2013-10-06 04:12:00,
2013-10-06 00:18:00,58.4,55.0,30.08,NNW,330,0.5,1.6,88,0.00,n/a,n/a,-99.99,Henriksen +1-Wire,2013-10-06 04:18:00,
2013-10-06 00:24:00,58.4,55.1,30.08,NNW,330,0.0,1.6,88,0.00,n/a,n/a,-99.99,Henriksen +1-Wire,2013-10-06 04:24:00,
2013-10-06 00:30:00,58.4,55.2,30.08,NW,309,0.0,0.0,89,0.00,n/a,n/a,-99.99,Henriksen +1-Wire,2013-10-06 04:30:00,
2013-10-06 00:36:00,58.4,55.4,30.08,WNW,291,0.0,0.0,89,0.00,n/a,n/a,-99.99,Henriksen +1-Wire,2013-10-06 04:36:00,
2013-10-06 00:42:00,58.4,55.3,30.08,ESE,103,0.0,0.0,89,0.00,n/a,n/a,-99.99,Henriksen +1-Wire,2013-10-06 04:42:00,
2013-10-06 00:46:00,58.7,55.6,30.08,South,172,0.0,0.0,89,0.00,n/a,n/a,-99.99,Henriksen +1-Wire,2013-10-06 04:46:00,
2013-10-06 00:52:00,58.8,55.7,30.09,South,181,0.0,0.0,89,0.00,n/a,n/a,-99.99,Henriksen +1-Wire,2013-10-06 04:52:00,
2013-10-06 00:58:00,58.7,56.1,30.09,South,179,0.7,1.6,90,0.00,n/a,n/a,-99.99,Henriksen +1-Wire,2013-10-06 04:58:00,
2013-10-06 01:04:00,58.6,56.1,30.09,SSE,165,1.4,2.5,91,0.00,n/a,n/a,-99.99,Henriksen +1-Wire,2013-10-06 05:04:00,
2013-10-06 01:10:00,58.5,56.1,30.10,South,170,1.7,2.9,91,0.00,n/a,n/a,-99.99,Henriksen +1-Wire,2013-10-06 05:10:00,
2013-10-06 01:16:00,58.5,55.9,30.10,SSW,193,1.4,2.6,91,0.00,n/a,n/a,-99.99,Henriksen +1-Wire,2013-10-06 05:16:00,
2013-10-06 01:22:00,58.4,55.7,30.10,SW,227,0.6,2.6,90,0.00,n/a,n/a,-99.99,Henriksen +1-Wire,2013-10-06 05:22:00,
2013-10-06 01:28:00,58.5,55.7,30.10,SSW,198,0.0,1.6,90,0.00,n/a,n/a,-99.99,Henriksen +1-Wire,2013-10-06 05:28:00,
2013-10-06 01:34:00,58.5,55.7,30.10,South,188,0.8,1.3,90,0.00,n/a,n/a,-99.99,Henriksen +1-Wire,2013-10-06 05:34:00,
2013-10-06 01:40:00,58.5,55.9,30.10,South,189,0.0,1.3,90,0.01,n/a,n/a,-99.99,Henriksen +1-Wire,2013-10-06 05:40:00,
2013-10-06 01:46:00,58.4,55.9,30.10,NNW,342,0.0,0.0,91,0.01,n/a,n/a,-99.99,Henriksen +1-Wire,2013-10-06 05:46:00,
2013-10-06 01:52:00,58.1,56.1,30.10,WNW,301,0.0,0.0,93,0.01,n/a,n/a,-99.99,Henriksen +1-Wire,2013-10-06 05:52:00,
2013-10-06 01:58:00,57.8,56.1,30.10,WNW,300,0.0,0.0,93,0.01,n/a,n/a,-99.99,Henriksen +1-Wire,2013-10-06 05:58:00,
2013-10-06 02:04:00,58.1,56.5,30.10,SE,134,0.0,0.0,94,0.01,n/a,n/a,-99.99,Henriksen +1-Wire,2013-10-06 06:04:00,
2013-10-06 02:10:00,58.0,56.4,30.10,SE,139,1.2,1.6,94,0.01,n/a,n/a,-99.99,Henriksen +1-Wire,2013-10-06 06:10:00,
2013-10-06 02:16:00,57.8,56.4,30.10,SE,127,0.5,2.5,95,0.01,n/a,n/a,-99.99,Henriksen +1-Wire,2013-10-06 06:16:00,
2013-10-06 02:22:00,57.7,56.2,30.09,SSE,166,1.2,2.5,94,0.01,n/a,n/a,-99.99,Henriksen +1-Wire,2013-10-06 06:22:00,
2013-10-06 02:28:00,57.5,56.1,30.09,SSE,164,2.3,2.9,95,0.01,n/a,n/a,-99.99,Henriksen +1-Wire,2013-10-06 06:28:00,
2013-10-06 02:34:00,57.4,56.2,30.09,SSE,159,0.5,2.9,95,0.01,n/a,n/a,-99.99,Henriksen +1-Wire,2013-10-06 06:34:00,
2013-10-06 02:40:00,57.1,56.0,30.09,NNW,334,0.0,2.2,95,0.00,n/a,n/a,-99.99,Henriksen +1-Wire,2013-10-06 06:40:00,
2013-10-06 02:46:00,57.1,56.0,30.09,NW,306,0.0,0.0,95,0.00,n/a,n/a,-99.99,Henriksen +1-Wire,2013-10-06 06:46:00,
2013-10-06 02:52:00,57.4,56.2,30.09,ENE,77,1.2,1.9,95,0.00,n/a,n/a,-99.99,Henriksen +1-Wire,2013-10-06 06:52:00,
2013-10-06 02:58:00,57.2,55.9,30.08,East,79,0.8,2.2,95,0.00,n/a,n/a,-99.99,Henriksen +1-Wire,2013-10-06 06:58:00,
2013-10-06 03:04:00,57.0,55.7,30.08,WNW,283,0.6,2.2,95,0.00,n/a,n/a,-99.99,Henriksen +1-Wire,2013-10-06 07:04:00,
2013-10-06 03:10:00,56.6,55.3,30.09,West,281,0.0,1.3,95,0.00,n/a,n/a,-99.99,Henriksen +1-Wire,2013-10-06 07:10:00,
2013-10-06 03:16:00,56.5,55.4,30.09,WNW,285,0.0,1.0,95,0.00,n/a,n/a,-99.99,Henriksen +1-Wire,2013-10-06 07:16:00,
2013-10-06 03:22:00,56.5,55.4,30.09,NNW,333,0.3,1.6,95,0.00,n/a,n/a,-99.99,Henriksen +1-Wire,2013-10-06 07:22:00,
2013-10-06 03:28:00,56.5,55.4,30.09,NNW,339,0.2,2.9,96,0.00,n/a,n/a,-99.99,Henriksen +1-Wire,2013-10-06 07:28:00,
2013-10-06 03:34:00,56.5,55.5,30.08,WNW,298,0.0,1.9,96,0.00,n/a,n/a,-99.99,Henriksen +1-Wire,2013-10-06 07:34:00,
2013-10-06 03:40:00,56.5,55.5,30.09,NNW,329,0.0,0.3,96,0.00,n/a,n/a,-99.99,Henriksen +1-Wire,2013-10-06 07:40:00,
2013-10-06 03:46:00,56.6,55.6,30.09,NNW,342,1.5,2.6,96,0.00,n/a,n/a,-99.99,Henriksen +1-Wire,2013-10-06 07:46:00,
2013-10-06 03:52:00,56.6,55.5,30.09,NNW,334,0.8,3.2,96,0.00,n/a,n/a,-99.99,Henriksen +1-Wire,2013-10-06 07:52:00,
2013-10-06 03:58:00,56.8,55.8,30.09,NNW,331,0.0,3.2,96,0.00,n/a,n/a,-99.99,Henriksen +1-Wire,2013-10-06 07:58:00,
2013-10-06 04:04:00,56.8,55.8,30.09,NW,315,1.2,2.2,96,0.00,n/a,n/a,-99.99,Henriksen +1-Wire,2013-10-06 08:04:00,
2013-10-06 04:10:00,56.8,55.8,30.09,West,278,0.0,2.2,96,0.00,n/a,n/a,-99.99,Henriksen +1-Wire,2013-10-06 08:10:00,
2013-10-06 04:16:00,57.0,56.0,30.09,WSW,240,0.0,0.0,96,0.00,n/a,n/a,-99.99,Henriksen +1-Wire,2013-10-06 08:16:00,
2013-10-06 04:22:00,57.0,55.9,30.09,NNW,344,0.0,0.0,96,0.00,n/a,n/a,-99.99,Henriksen +1-Wire,2013-10-06 08:22:00,
2013-10-06 04:28:00,57.1,56.1,30.09,NNW,338,0.0,0.0,96,0.00,n/a,n/a,-99.99,Henriksen +1-Wire,2013-10-06 08:28:00,
2013-10-06 04:34:00,57.0,55.8,30.09,West,267,0.0,0.0,95,0.00,n/a,n/a,-99.99,Henriksen +1-Wire,2013-10-06 08:34:00,
2013-10-06 04:40:00,57.0,55.8,30.09,NW,318,1.3,2.3,95,0.00,n/a,n/a,-99.99,Henriksen +1-Wire,2013-10-06 08:40:00,
2013-10-06 04:46:00,57.0,56.0,30.09,NNW,340,0.2,2.3,96,0.00,n/a,n/a,-99.99,Henriksen +1-Wire,2013-10-06 08:46:00,
2013-10-06 04:52:00,57.0,56.0,30.09,NW,313,0.0,1.3,96,0.00,n/a,n/a,-99.99,Henriksen +1-Wire,2013-10-06 08:52:00,
2013-10-06 04:58:00,57.1,56.1,30.09,NW,322,0.0,1.0,96,0.00,n/a,n/a,-99.99,Henriksen +1-Wire,2013-10-06 08:58:00,
2013-10-06 05:04:00,57.2,56.1,30.10,NW,306,0.0,1.0,96,0.00,n/a,n/a,-99.99,Henriksen +1-Wire,2013-10-06 09:04:00,
2013-10-06 05:10:00,57.1,56.0,30.10,WNW,302,0.0,0.6,96,0.00,n/a,n/a,-99.99,Henriksen +1-Wire,2013-10-06 09:10:00,
2013-10-06 05:12:00,57.1,56.0,30.10,NNW,344,0.9,2.3,96,0.00,n/a,n/a,-99.99,Henriksen +1-Wire,2013-10-06 09:12:00,
2013-10-06 05:18:00,57.1,55.9,30.11,NNW,335,2.0,3.7,95,0.00,n/a,n/a,-99.99,Henriksen +1-Wire,2013-10-06 09:18:00,
2013-10-06 05:24:00,57.1,55.8,30.11,NNW,327,0.2,3.9,95,0.00,n/a,n/a,-99.99,Henriksen +1-Wire,2013-10-06 09:24:00,
2013-10-06 05:30:00,57.3,56.0,30.11,NNW,337,1.2,2.6,95,0.00,n/a,n/a,-99.99,Henriksen +1-Wire,2013-10-06 09:30:00,
2013-10-06 05:36:00,57.1,55.9,30.10,NNW,339,0.9,3.5,95,0.00,n/a,n/a,-99.99,Henriksen +1-Wire,2013-10-06 09:36:00,
2013-10-06 05:42:00,57.2,55.9,30.10,North,354,1.3,3.5,95,0.00,n/a,n/a,-99.99,Henriksen +1-Wire,2013-10-06 09:42:00,
2013-10-06 05:48:00,57.2,55.7,30.11,NW,326,1.5,3.7,94,0.00,n/a,n/a,-99.99,Henriksen +1-Wire,2013-10-06 09:48:00,
2013-10-06 05:54:00,57.2,55.8,30.12,NNW,333,0.6,5.5,94,0.00,n/a,n/a,-99.99,Henriksen +1-Wire,2013-10-06 09:54:00,
2013-10-06 06:00:00,57.3,55.9,30.12,NNW,334,0.0,5.5,95,0.00,n/a,n/a,-99.99,Henriksen +1-Wire,2013-10-06 10:00:00,
2013-10-06 06:06:00,57.3,55.9,30.12,NNE,29,1.6,4.5,95,0.00,n/a,n/a,-99.99,Henriksen +1-Wire,2013-10-06 10:06:00,
2013-10-06 06:12:00,57.3,55.8,30.12,NNW,334,1.4,5.1,94,0.00,n/a,n/a,-99.99,Henriksen +1-Wire,2013-10-06 10:12:00,
2013-10-06 06:18:00,57.3,55.8,30.12,NNW,329,1.5,5.1,94,0.00,n/a,n/a,-99.99,Henriksen +1-Wire,2013-10-06 10:18:00,
2013-10-06 06:24:00,57.3,55.7,30.12,NNW,333,2.1,4.6,94,0.00,n/a,n/a,-99.99,Henriksen +1-Wire,2013-10-06 10:24:00,
2013-10-06 06:30:00,57.3,55.6,30.13,NNW,338,1.3,4.6,94,0.00,n/a,n/a,-99.99,Henriksen +1-Wire,2013-10-06 10:30:00,
2013-10-06 06:36:00,57.2,55.6,30.13,NNW,335,1.2,3.2,94,0.01,n/a,n/a,-99.99,Henriksen +1-Wire,2013-10-06 10:36:00,
2013-10-06 06:42:00,57.1,55.3,30.13,NNW,328,2.8,5.8,93,0.01,n/a,n/a,-99.99,Henriksen +1-Wire,2013-10-06 10:42:00,
2013-10-06 06:48:00,56.9,54.8,30.13,NNW,332,3.0,9.8,92,0.01,n/a,n/a,-99.99,Henriksen +1-Wire,2013-10-06 10:48:00,
2013-10-06 06:54:00,56.6,54.5,30.14,NNW,330,2.1,9.8,92,0.01,n/a,n/a,-99.99,Henriksen +1-Wire,2013-10-06 10:54:00,
2013-10-06 07:00:00,56.2,53.9,30.14,NNW,331,3.9,8.4,92,0.01,n/a,n/a,-99.99,Henriksen +1-Wire,2013-10-06 11:00:00,
2013-10-06 07:06:00,55.9,53.8,30.14,NW,317,0.5,8.4,92,0.01,n/a,n/a,-99.99,Henriksen +1-Wire,2013-10-06 11:06:00,
2013-10-06 07:12:00,55.6,53.6,30.14,NNW,341,3.6,7.4,92,0.02,n/a,n/a,-99.99,Henriksen +1-Wire,2013-10-06 11:12:00,
2013-10-06 07:18:00,55.4,53.2,30.14,NW,323,2.2,7.4,92,0.02,n/a,n/a,-99.99,Henriksen +1-Wire,2013-10-06 11:18:00,
2013-10-06 07:24:00,55.2,53.3,30.14,NNW,328,1.4,5.2,93,0.02,n/a,n/a,-99.99,Henriksen +1-Wire,2013-10-06 11:24:00,
2013-10-06 07:30:00,54.9,52.9,30.14,NNW,332,1.7,5.3,92,0.02,n/a,n/a,-99.99,Henriksen +1-Wire,2013-10-06 11:30:00,
2013-10-06 07:36:00,54.8,53.0,30.14,NNW,337,3.3,7.0,93,0.01,n/a,n/a,-99.99,Henriksen +1-Wire,2013-10-06 11:36:00,
2013-10-06 07:42:00,54.7,53.0,30.15,NNW,327,1.7,7.0,93,0.03,n/a,n/a,-99.99,Henriksen +1-Wire,2013-10-06 11:42:00,
2013-10-06 07:48:00,54.6,53.0,30.16,NW,322,2.1,4.7,94,0.03,n/a,n/a,-99.99,Henriksen +1-Wire,2013-10-06 11:48:00,
2013-10-06 07:54:00,54.4,53.1,30.16,NNW,335,2.3,5.2,95,0.04,n/a,n/a,-99.99,Henriksen +1-Wire,2013-10-06 11:54:00,
2013-10-06 08:00:00,54.5,53.2,30.16,NNW,335,0.7,5.2,95,0.04,n/a,n/a,-99.99,Henriksen +1-Wire,2013-10-06 12:00:00,
2013-10-06 08:06:00,54.5,53.2,30.16,NNW,337,0.7,3.8,95,0.04,n/a,n/a,-99.99,Henriksen +1-Wire,2013-10-06 12:06:00,
2013-10-06 08:12:00,54.3,53.1,30.16,North,353,1.6,3.9,95,0.04,n/a,n/a,-99.99,Henriksen +1-Wire,2013-10-06 12:12:00,
2013-10-06 08:18:00,54.2,53.1,30.16,NNW,335,1.5,3.9,96,0.06,n/a,n/a,-99.99,Henriksen +1-Wire,2013-10-06 12:18:00,
2013-10-06 08:24:00,54.0,52.9,30.16,NNW,332,1.2,5.1,95,0.07,n/a,n/a,-99.99,Henriksen +1-Wire,2013-10-06 12:24:00,
2013-10-06 08:30:00,53.9,52.9,30.16,NNW,331,2.1,5.1,96,0.08,n/a,n/a,-99.99,Henriksen +1-Wire,2013-10-06 12:30:00,
2013-10-06 08:36:00,53.9,52.9,30.16,NNW,341,2.2,4.8,96,0.09,n/a,n/a,-99.99,Henriksen +1-Wire,2013-10-06 12:36:00,
2013-10-06 08:42:00,53.8,52.9,30.17,NNW,329,2.1,4.5,96,0.07,n/a,n/a,-99.99,Henriksen +1-Wire,2013-10-06 12:42:00,
2013-10-06 08:48:00,53.8,52.9,30.17,NNW,333,1.3,4.5,96,0.07,n/a,n/a,-99.99,Henriksen +1-Wire,2013-10-06 12:48:00,
2013-10-06 08:54:00,53.8,52.8,30.17,NNW,336,2.1,4.7,96,0.06,n/a,n/a,-99.99,Henriksen +1-Wire,2013-10-06 12:54:00,
2013-10-06 09:00:00,53.5,52.4,30.17,NNW,333,3.1,7.4,96,0.07,n/a,n/a,-99.99,Henriksen +1-Wire,2013-10-06 13:00:00,
2013-10-06 09:06:00,53.3,52.2,30.18,NNW,330,1.9,7.4,96,0.07,n/a,n/a,-99.99,Henriksen +1-Wire,2013-10-06 13:06:00,
2013-10-06 09:12:00,53.1,52.0,30.18,NNW,336,2.2,4.8,96,0.06,n/a,n/a,-99.99,Henriksen +1-Wire,2013-10-06 13:12:00,
2013-10-06 09:18:00,52.9,51.9,30.18,NNW,331,2.5,7.1,96,0.04,n/a,n/a,-99.99,Henriksen +1-Wire,2013-10-06 13:18:00,
2013-10-06 09:24:00,52.9,51.9,30.18,WNW,295,1.7,7.1,96,0.04,n/a,n/a,-99.99,Henriksen +1-Wire,2013-10-06 13:24:00,
2013-10-06 09:30:00,52.7,51.6,30.18,NNW,328,1.9,5.4,96,0.03,n/a,n/a,-99.99,Henriksen +1-Wire,2013-10-06 13:30:00,
2013-10-06 09:36:00,52.5,51.4,30.18,NNW,338,2.9,5.6,96,0.03,n/a,n/a,-99.99,Henriksen +1-Wire,2013-10-06 13:36:00,
2013-10-06 09:42:00,52.5,51.4,30.19,WNW,300,2.3,5.9,96,0.03,n/a,n/a,-99.99,Henriksen +1-Wire,2013-10-06 13:42:00,
2013-10-06 09:48:00,52.4,51.4,30.19,NNW,335,1.8,5.9,96,0.03,n/a,n/a,-99.99,Henriksen +1-Wire,2013-10-06 13:48:00,
2013-10-06 09:54:00,52.4,51.4,30.19,NW,316,2.5,5.8,96,0.03,n/a,n/a,-99.99,Henriksen +1-Wire,2013-10-06 13:54:00,
2013-10-06 10:00:00,52.4,51.5,30.19,NW,318,1.4,4.8,96,0.02,n/a,n/a,-99.99,Henriksen +1-Wire,2013-10-06 14:00:00,
2013-10-06 10:06:00,52.4,51.5,30.19,NW,326,3.5,5.3,96,0.02,n/a,n/a,-99.99,Henriksen +1-Wire,2013-10-06 14:06:00,
2013-10-06 10:12:00,52.3,51.5,30.18,NW,324,1.6,5.3,96,0.02,n/a,n/a,-99.99,Henriksen +1-Wire,2013-10-06 14:12:00,
2013-10-06 10:18:00,52.5,51.7,30.18,NNW,329,2.1,5.2,96,0.03,n/a,n/a,-99.99,Henriksen +1-Wire,2013-10-06 14:18:00,
2013-10-06 10:24:00,52.7,51.7,30.18,WNW,288,1.9,4.9,96,0.02,n/a,n/a,-99.99,Henriksen +1-Wire,2013-10-06 14:24:00,
2013-10-06 10:30:00,52.6,51.7,30.18,NW,322,2.1,4.9,96,0.02,n/a,n/a,-99.99,Henriksen +1-Wire,2013-10-06 14:30:00,
2013-10-06 10:36:00,52.6,51.8,30.18,NNW,327,2.8,5.5,96,0.01,n/a,n/a,-99.99,Henriksen +1-Wire,2013-10-06 14:36:00,
2013-10-06 10:42:00,52.4,51.5,30.19,North,352,3.0,8.6,96,0.01,n/a,n/a,-99.99,Henriksen +1-Wire,2013-10-06 14:42:00,
2013-10-06 10:48:00,52.5,51.5,30.18,NNW,338,2.4,8.6,96,0.01,n/a,n/a,-99.99,Henriksen +1-Wire,2013-10-06 14:48:00,
2013-10-06 10:54:00,52.6,51.7,30.18,NNW,336,0.8,5.6,96,0.02,n/a,n/a,-99.99,Henriksen +1-Wire,2013-10-06 14:54:00,
2013-10-06 11:00:00,52.8,51.9,30.18,NNW,335,1.6,3.8,96,0.02,n/a,n/a,-99.99,Henriksen +1-Wire,2013-10-06 15:00:00,
2013-10-06 11:06:00,53.0,52.0,30.18,NNW,329,1.4,6.9,96,0.02,n/a,n/a,-99.99,Henriksen +1-Wire,2013-10-06 15:06:00,
2013-10-06 11:12:00,53.0,52.1,30.18,NW,320,2.1,6.5,96,0.02,n/a,n/a,-99.99,Henriksen +1-Wire,2013-10-06 15:12:00,
2013-10-06 11:18:00,53.2,52.3,30.18,NW,324,1.7,6.5,96,0.01,n/a,n/a,-99.99,Henriksen +1-Wire,2013-10-06 15:18:00,
2013-10-06 11:24:00,53.2,52.4,30.18,NNW,332,3.2,7.4,96,0.01,n/a,n/a,-99.99,Henriksen +1-Wire,2013-10-06 15:24:00,
2013-10-06 11:30:00,53.3,52.4,30.18,NNW,334,3.5,7.4,96,0.01,n/a,n/a,-99.99,Henriksen +1-Wire,2013-10-06 15:30:00,
2013-10-06 11:36:00,53.4,52.5,30.18,NNW,336,2.6,8.5,96,0.01,n/a,n/a,-99.99,Henriksen +1-Wire,2013-10-06 15:36:00,
2013-10-06 11:42:00,53.7,52.8,30.18,WNW,292,1.3,4.9,96,0.01,n/a,n/a,-99.99,Henriksen +1-Wire,2013-10-06 15:42:00,
2013-10-06 11:48:00,53.7,52.8,30.17,NNW,331,2.2,5.3,96,0.01,n/a,n/a,-99.99,Henriksen +1-Wire,2013-10-06 15:48:00,
2013-10-06 11:54:00,53.8,52.8,30.18,NNW,336,3.0,5.9,96,0.00,n/a,n/a,-99.99,Henriksen +1-Wire,2013-10-06 15:54:00,
2013-10-06 12:00:00,53.8,52.8,30.17,NNW,337,2.6,6.6,96,0.00,n/a,n/a,-99.99,Henriksen +1-Wire,2013-10-06 16:00:00,
2013-10-06 12:06:00,54.0,53.0,30.17,NNW,330,3.2,6.1,96,0.00,n/a,n/a,-99.99,Henriksen +1-Wire,2013-10-06 16:06:00,
2013-10-06 12:12:00,54.0,53.1,30.16,NNW,329,2.3,6.1,96,0.00,n/a,n/a,-99.99,Henriksen +1-Wire,2013-10-06 16:12:00,
2013-10-06 12:18:00,54.1,53.1,30.17,NW,315,3.3,5.4,96,0.00,n/a,n/a,-99.99,Henriksen +1-Wire,2013-10-06 16:18:00,
2013-10-06 12:26:00,54.0,52.9,30.17,NW,304,1.7,3.2,96,0.00,n/a,n/a,-99.99,Henriksen +1-Wire,2013-10-06 16:26:00,
2013-10-06 12:32:00,54.1,53.1,30.17,NW,320,1.8,3.8,96,0.00,n/a,n/a,-99.99,Henriksen +1-Wire,2013-10-06 16:32:00,
2013-10-06 12:38:00,54.1,53.2,30.17,NW,317,2.5,5.1,96,0.00,n/a,n/a,-99.99,Henriksen +1-Wire,2013-10-06 16:38:00,
2013-10-06 12:44:00,54.0,53.1,30.17,NW,324,2.1,5.1,96,0.00,n/a,n/a,-99.99,Henriksen +1-Wire,2013-10-06 16:44:00,
2013-10-06 12:50:00,54.1,53.2,30.17,NNW,331,1.6,4.2,96,0.00,n/a,n/a,-99.99,Henriksen +1-Wire,2013-10-06 16:50:00,
2013-10-06 12:56:00,54.2,53.1,30.17,NNW,334,1.3,4.3,96,0.00,n/a,n/a,-99.99,Henriksen +1-Wire,2013-10-06 16:56:00,
2013-10-06 13:02:00,54.2,53.3,30.17,NNW,333,2.0,4.9,96,0.00,n/a,n/a,-99.99,Henriksen +1-Wire,2013-10-06 17:02:00,
2013-10-06 13:08:00,54.2,53.3,30.17,NNW,339,1.7,4.9,96,0.00,n/a,n/a,-99.99,Henriksen +1-Wire,2013-10-06 17:08:00,
2013-10-06 13:14:00,54.2,53.3,30.16,NW,320,2.0,5.2,96,0.00,n/a,n/a,-99.99,Henriksen +1-Wire,2013-10-06 17:14:00,
2013-10-06 13:20:00,54.2,53.4,30.17,NW,323,1.6,5.2,96,0.00,n/a,n/a,-99.99,Henriksen +1-Wire,2013-10-06 17:20:00,
2013-10-06 13:26:00,54.3,53.5,30.16,NNW,327,1.0,3.8,97,0.00,n/a,n/a,-99.99,Henriksen +1-Wire,2013-10-06 17:26:00,
2013-10-06 13:32:00,54.4,53.4,30.16,NNW,335,2.0,4.7,96,0.00,n/a,n/a,-99.99,Henriksen +1-Wire,2013-10-06 17:32:00,
2013-10-06 13:38:00,54.3,53.4,30.16,NW,321,1.7,4.7,96,0.00,n/a,n/a,-99.99,Henriksen +1-Wire,2013-10-06 17:38:00,
2013-10-06 13:44:00,54.3,53.5,30.16,NW,325,1.5,4.7,97,0.00,n/a,n/a,-99.99,Henriksen +1-Wire,2013-10-06 17:44:00,
2013-10-06 13:50:00,54.3,53.4,30.16,NW,324,1.8,4.8,96,0.00,n/a,n/a,-99.99,Henriksen +1-Wire,2013-10-06 17:50:00,
2013-10-06 13:56:00,54.3,53.5,30.15,NW,318,1.7,3.9,97,0.01,n/a,n/a,-99.99,Henriksen +1-Wire,2013-10-06 17:56:00,
2013-10-06 14:02:00,54.3,53.5,30.16,NW,311,1.9,5.5,97,0.03,n/a,n/a,-99.99,Henriksen +1-Wire,2013-10-06 18:02:00,
2013-10-06 14:08:00,54.3,53.5,30.15,NNW,328,2.7,5.5,97,0.04,n/a,n/a,-99.99,Henriksen +1-Wire,2013-10-06 18:08:00,
2013-10-06 14:14:00,54.4,53.7,30.15,NW,323,2.1,5.4,97,0.05,n/a,n/a,-99.99,Henriksen +1-Wire,2013-10-06 18:14:00,
2013-10-06 14:20:00,54.5,53.7,30.15,NW,324,0.9,3.8,97,0.05,n/a,n/a,-99.99,Henriksen +1-Wire,2013-10-06 18:20:00,
2013-10-06 14:26:00,54.6,53.8,30.15,NW,322,1.8,4.2,97,0.05,n/a,n/a,-99.99,Henriksen +1-Wire,2013-10-06 18:26:00,
2013-10-06 14:32:00,54.6,53.7,30.15,NNW,342,0.8,4.7,96,0.05,n/a,n/a,-99.99,Henriksen +1-Wire,2013-10-06 18:32:00,
2013-10-06 14:38:00,54.6,53.8,30.15,NNW,340,0.9,3.1,97,0.06,n/a,n/a,-99.99,Henriksen +1-Wire,2013-10-06 18:38:00,
2013-10-06 14:44:00,54.5,53.7,30.16,NNW,330,2.0,5.4,97,0.06,n/a,n/a,-99.99,Henriksen +1-Wire,2013-10-06 18:44:00,
2013-10-06 14:50:00,54.5,53.8,30.15,NNW,331,1.1,5.4,97,0.06,n/a,n/a,-99.99,Henriksen +1-Wire,2013-10-06 18:50:00,
2013-10-06 14:56:00,54.6,53.8,30.15,NNW,347,1.8,4.0,97,0.05,n/a,n/a,-99.99,Henriksen +1-Wire,2013-10-06 18:56:00,
2013-10-06 15:02:00,54.7,54.0,30.15,NNW,327,1.0,5.2,97,0.04,n/a,n/a,-99.99,Henriksen +1-Wire,2013-10-06 19:02:00,
2013-10-06 15:08:00,54.8,54.1,30.15,NW,318,0.1,3.1,97,0.03,n/a,n/a,-99.99,Henriksen +1-Wire,2013-10-06 19:08:00,
2013-10-06 15:14:00,54.9,54.1,30.15,NNW,347,1.1,3.9,97,0.02,n/a,n/a,-99.99,Henriksen +1-Wire,2013-10-06 19:14:00,
2013-10-06 15:20:00,54.9,54.2,30.15,North,359,0.1,3.9,97,0.02,n/a,n/a,-99.99,Henriksen +1-Wire,2013-10-06 19:20:00,
2013-10-06 15:26:00,55.0,54.3,30.15,WNW,294,1.1,2.2,97,0.02,n/a,n/a,-99.99,Henriksen +1-Wire,2013-10-06 19:26:00,
2013-10-06 15:32:00,55.1,54.4,30.15,ENE,59,1.0,2.8,97,0.02,n/a,n/a,-99.99,Henriksen +1-Wire,2013-10-06 19:32:00,
2013-10-06 15:38:00,55.2,54.4,30.14,NNE,23,1.5,3.1,97,0.01,n/a,n/a,-99.99,Henriksen +1-Wire,2013-10-06 19:38:00,
2013-10-06 15:44:00,55.3,54.5,30.14,WSW,240,0.4,3.1,97,0.01,n/a,n/a,-99.99,Henriksen +1-Wire,2013-10-06 19:44:00,
2013-10-06 15:50:00,55.3,54.5,30.14,NNW,334,0.3,2.3,97,0.01,n/a,n/a,-99.99,Henriksen +1-Wire,2013-10-06 19:50:00,
2013-10-06 15:56:00,55.3,54.6,30.14,NNW,333,0.3,2.3,97,0.01,n/a,n/a,-99.99,Henriksen +1-Wire,2013-10-06 19:56:00,
2013-10-06 16:02:00,55.4,54.6,30.14,ENE,70,1.6,4.5,97,0.00,n/a,n/a,-99.99,Henriksen +1-Wire,2013-10-06 20:02:00,
2013-10-06 16:08:00,55.5,54.7,30.14,ENE,69,1.8,4.9,97,0.00,n/a,n/a,-99.99,Henriksen +1-Wire,2013-10-06 20:08:00,
2013-10-06 16:14:00,55.5,54.6,30.14,NE,37,0.0,4.9,96,0.01,n/a,n/a,-99.99,Henriksen +1-Wire,2013-10-06 20:14:00,
2013-10-06 16:20:00,55.6,54.8,30.14,NNW,345,0.1,1.9,97,0.01,n/a,n/a,-99.99,Henriksen +1-Wire,2013-10-06 20:20:00,
2013-10-06 16:26:00,55.6,54.9,30.14,NNE,24,1.6,11.2,97,0.01,n/a,n/a,-99.99,Henriksen +1-Wire,2013-10-06 20:26:00,
2013-10-06 16:32:00,55.5,54.8,30.14,WNW,294,0.2,11.2,97,0.01,n/a,n/a,-99.99,Henriksen +1-Wire,2013-10-06 20:32:00,
2013-10-06 16:38:00,55.5,54.8,30.14,NNW,332,0.2,2.9,97,0.01,n/a,n/a,-99.99,Henriksen +1-Wire,2013-10-06 20:38:00,
2013-10-06 16:44:00,55.5,54.7,30.14,NNW,341,1.0,2.9,96,0.01,n/a,n/a,-99.99,Henriksen +1-Wire,2013-10-06 20:44:00,
2013-10-06 16:50:00,55.5,54.7,30.14,NNW,331,0.5,4.2,97,0.01,n/a,n/a,-99.99,Henriksen +1-Wire,2013-10-06 20:50:00,
2013-10-06 16:56:00,55.6,54.8,30.14,East,91,0.2,4.2,97,0.01,n/a,n/a,-99.99,Henriksen +1-Wire,2013-10-06 20:56:00,
2013-10-06 17:02:00,55.6,54.7,30.14,ENE,73,0.1,1.3,96,0.01,n/a,n/a,-99.99,Henriksen +1-Wire,2013-10-06 21:02:00,
2013-10-06 17:08:00,55.6,54.9,30.14,WNW,299,0.0,1.3,97,0.01,n/a,n/a,-99.99,Henriksen +1-Wire,2013-10-06 21:08:00,
2013-10-06 17:14:00,55.6,54.7,30.14,ENE,75,0.6,2.6,96,0.00,n/a,n/a,-99.99,Henriksen +1-Wire,2013-10-06 21:14:00,
2013-10-06 17:20:00,55.7,54.7,30.14,East,79,0.3,3.2,96,0.00,n/a,n/a,-99.99,Henriksen +1-Wire,2013-10-06 21:20:00,
2013-10-06 17:26:00,55.7,54.9,30.14,ENE,75,0.2,9.5,97,0.00,n/a,n/a,-99.99,Henriksen +1-Wire,2013-10-06 21:26:00,
2013-10-06 17:32:00,55.7,54.9,30.14,East,79,1.5,4.2,97,0.00,n/a,n/a,-99.99,Henriksen +1-Wire,2013-10-06 21:32:00,
2013-10-06 17:38:00,55.7,54.9,30.14,East,83,1.3,3.2,97,0.00,n/a,n/a,-99.99,Henriksen +1-Wire,2013-10-06 21:38:00,
2013-10-06 17:44:00,55.7,54.8,30.14,East,83,1.4,3.8,97,0.00,n/a,n/a,-99.99,Henriksen +1-Wire,2013-10-06 21:44:00,
2013-10-06 17:50:00,55.6,54.7,30.14,East,86,1.6,6.6,97,0.00,n/a,n/a,-99.99,Henriksen +1-Wire,2013-10-06 21:50:00,
2013-10-06 17:56:00,55.6,54.7,30.14,East,97,0.8,6.6,97,0.00,n/a,n/a,-99.99,Henriksen +1-Wire,2013-10-06 21:56:00,
2013-10-06 18:02:00,55.6,54.7,30.14,East,82,2.5,5.7,96,0.00,n/a,n/a,-99.99,Henriksen +1-Wire,2013-10-06 22:02:00,
2013-10-06 18:08:00,55.5,54.6,30.14,East,82,0.4,5.7,96,0.00,n/a,n/a,-99.99,Henriksen +1-Wire,2013-10-06 22:08:00,
2013-10-06 18:14:00,55.5,54.6,30.14,East,84,0.3,2.9,96,0.00,n/a,n/a,-99.99,Henriksen +1-Wire,2013-10-06 22:14:00,
2013-10-06 18:20:00,55.5,54.7,30.14,ENE,78,0.0,2.3,97,0.01,n/a,n/a,-99.99,Henriksen +1-Wire,2013-10-06 22:20:00,
2013-10-06 18:26:00,55.4,54.6,30.14,NNE,20,1.2,2.9,97,0.02,n/a,n/a,-99.99,Henriksen +1-Wire,2013-10-06 22:26:00,
2013-10-06 18:32:00,55.3,54.6,30.14,ESE,121,3.3,17.3,97,0.03,n/a,n/a,-99.99,Henriksen +1-Wire,2013-10-06 22:32:00,
2013-10-06 18:38:00,55.2,54.5,30.14,ENE,71,0.9,40.7,97,0.03,n/a,n/a,-99.99,Henriksen +1-Wire,2013-10-06 22:38:00,
2013-10-06 18:44:00,55.2,54.4,30.14,West,270,0.7,28.4,97,0.03,n/a,n/a,-99.99,Henriksen +1-Wire,2013-10-06 22:44:00,
2013-10-06 18:50:00,55.2,54.4,30.14,NNE,25,0.9,5.6,97,0.03,n/a,n/a,-99.99,Henriksen +1-Wire,2013-10-06 22:50:00,
2013-10-06 18:56:00,55.0,54.1,30.14,ENE,77,2.6,5.8,96,0.03,n/a,n/a,-99.99,Henriksen +1-Wire,2013-10-06 22:56:00,
2013-10-06 19:02:00,54.9,54.1,30.14,East,91,2.6,4.8,97,0.03,n/a,n/a,-99.99,Henriksen +1-Wire,2013-10-06 23:02:00,
2013-10-06 19:08:00,54.9,54.1,30.14,East,92,1.9,5.6,97,0.03,n/a,n/a,-99.99,Henriksen +1-Wire,2013-10-06 23:08:00,
2013-10-06 19:14:00,54.8,54.0,30.14,ENE,74,2.7,6.1,97,0.03,n/a,n/a,-99.99,Henriksen +1-Wire,2013-10-06 23:14:00,
2013-10-06 19:20:00,54.7,54.0,30.14,ENE,76,0.4,5.9,97,0.02,n/a,n/a,-99.99,Henriksen +1-Wire,2013-10-06 23:20:00,
2013-10-06 19:26:00,54.7,54.0,30.14,WNW,303,1.4,6.7,97,0.01,n/a,n/a,-99.99,Henriksen +1-Wire,2013-10-06 23:26:00,
2013-10-06 19:32:00,54.7,53.9,30.14,ENE,73,3.4,6.9,96,0.00,n/a,n/a,-99.99,Henriksen +1-Wire,2013-10-06 23:32:00,
2013-10-06 19:38:00,54.7,53.8,30.14,East,79,1.1,5.4,97,0.00,n/a,n/a,-99.99,Henriksen +1-Wire,2013-10-06 23:38:00,
2013-10-06 19:44:00,54.5,53.7,30.14,East,82,3.8,7.4,96,0.00,n/a,n/a,-99.99,Henriksen +1-Wire,2013-10-06 23:44:00,
2013-10-06 19:50:00,54.5,53.7,30.14,East,80,2.5,7.4,97,0.00,n/a,n/a,-99.99,Henriksen +1-Wire,2013-10-06 23:50:00,
2013-10-06 19:56:00,54.5,53.7,30.14,ENE,78,2.0,5.5,97,0.00,n/a,n/a,-99.99,Henriksen +1-Wire,2013-10-06 23:56:00,
2013-10-06 20:02:00,54.4,53.6,30.14,NW,315,0.0,5.5,97,0.00,n/a,n/a,-99.99,Henriksen +1-Wire,2013-10-07 00:02:00,
2013-10-06 20:08:00,54.4,53.7,30.14,ENE,71,1.8,22.7,97,0.00,n/a,n/a,-99.99,Henriksen +1-Wire,2013-10-07 00:08:00,
2013-10-06 20:14:00,54.3,53.5,30.14,NE,42,0.2,22.7,97,0.00,n/a,n/a,-99.99,Henriksen +1-Wire,2013-10-07 00:14:00,
2013-10-06 20:20:00,54.3,53.6,30.14,ENE,66,2.1,4.9,97,0.00,n/a,n/a,-99.99,Henriksen +1-Wire,2013-10-07 00:20:00,
2013-10-06 20:26:00,54.2,53.5,30.13,NNE,27,0.2,4.9,97,0.00,n/a,n/a,-99.99,Henriksen +1-Wire,2013-10-07 00:26:00,
2013-10-06 20:32:00,54.2,53.5,30.14,North,352,0.2,7.4,97,0.00,n/a,n/a,-99.99,Henriksen +1-Wire,2013-10-07 00:32:00,
2013-10-06 20:38:00,54.3,53.6,30.13,NNE,19,0.5,7.4,97,0.00,n/a,n/a,-99.99,Henriksen +1-Wire,2013-10-07 00:38:00,
2013-10-06 20:44:00,54.2,53.5,30.13,WNW,294,0.8,2.9,97,0.00,n/a,n/a,-99.99,Henriksen +1-Wire,2013-10-07 00:44:00,
2013-10-06 20:50:00,54.3,53.6,30.13,NW,316,0.5,2.6,97,0.00,n/a,n/a,-99.99,Henriksen +1-Wire,2013-10-07 00:50:00,
2013-10-06 20:56:00,54.3,53.7,30.13,NW,316,0.0,2.2,97,0.00,n/a,n/a,-99.99,Henriksen +1-Wire,2013-10-07 00:56:00,
2013-10-06 21:02:00,54.3,53.6,30.13,NNE,33,0.2,1.9,97,0.00,n/a,n/a,-99.99,Henriksen +1-Wire,2013-10-07 01:02:00,
2013-10-06 21:08:00,54.4,53.7,30.13,NNW,344,0.0,2.2,97,0.00,n/a,n/a,-99.99,Henriksen +1-Wire,2013-10-07 01:08:00,
2013-10-06 21:14:00,54.4,53.7,30.12,NW,320,0.1,1.9,97,0.00,n/a,n/a,-99.99,Henriksen +1-Wire,2013-10-07 01:14:00,
2013-10-06 21:20:00,54.6,53.8,30.13,NW,323,0.0,1.9,97,0.00,n/a,n/a,-99.99,Henriksen +1-Wire,2013-10-07 01:20:00,
2013-10-06 21:26:00,54.5,53.9,30.12,North,1,0.8,2.9,97,0.00,n/a,n/a,-99.99,Henriksen +1-Wire,2013-10-07 01:26:00,
2013-10-06 21:32:00,54.5,53.9,30.12,NW,323,0.9,3.8,97,0.00,n/a,n/a,-99.99,Henriksen +1-Wire,2013-10-07 01:32:00,
2013-10-06 21:38:00,54.6,54.0,30.12,NNW,339,0.0,3.8,97,0.00,n/a,n/a,-99.99,Henriksen +1-Wire,2013-10-07 01:38:00,
2013-10-06 21:44:00,54.7,54.0,30.12,NNE,33,0.5,3.6,97,0.00,n/a,n/a,-99.99,Henriksen +1-Wire,2013-10-07 01:44:00,
2013-10-06 21:50:00,54.7,54.1,30.12,NNE,19,0.4,3.5,97,0.00,n/a,n/a,-99.99,Henriksen +1-Wire,2013-10-07 01:50:00,
2013-10-06 21:56:00,54.7,54.2,30.12,ENE,67,0.2,4.2,97,0.00,n/a,n/a,-99.99,Henriksen +1-Wire,2013-10-07 01:56:00,
2013-10-06 22:02:00,54.8,54.2,30.12,NW,320,0.1,18.0,97,0.00,n/a,n/a,-99.99,Henriksen +1-Wire,2013-10-07 02:02:00,
2013-10-06 22:08:00,54.9,54.3,30.12,NNW,335,3.5,25.9,97,0.00,n/a,n/a,-99.99,Henriksen +1-Wire,2013-10-07 02:08:00,
2013-10-06 22:14:00,55.0,54.4,30.12,WNW,282,0.3,25.9,97,0.00,n/a,n/a,-99.99,Henriksen +1-Wire,2013-10-07 02:14:00,
2013-10-06 22:20:00,55.0,54.3,30.12,NW,308,0.0,4.0,97,0.00,n/a,n/a,-99.99,Henriksen +1-Wire,2013-10-07 02:20:00,
2013-10-06 22:26:00,55.1,54.5,30.12,East,88,0.3,4.0,97,0.00,n/a,n/a,-99.99,Henriksen +1-Wire,2013-10-07 02:26:00,
2013-10-06 22:32:00,55.2,54.5,30.12,North,6,0.9,4.3,97,0.00,n/a,n/a,-99.99,Henriksen +1-Wire,2013-10-07 02:32:00,
2013-10-06 22:38:00,55.2,54.6,30.11,NNE,16,0.9,4.4,97,0.00,n/a,n/a,-99.99,Henriksen +1-Wire,2013-10-07 02:38:00,
2013-10-06 22:44:00,55.4,54.6,30.11,ENE,64,0.0,4.4,97,0.00,n/a,n/a,-99.99,Henriksen +1-Wire,2013-10-07 02:44:00,
2013-10-06 22:50:00,55.4,54.7,30.11,NNE,32,0.6,2.6,97,0.01,n/a,n/a,-99.99,Henriksen +1-Wire,2013-10-07 02:50:00,
2013-10-06 22:56:00,55.4,54.7,30.11,ENE,68,1.3,14.4,97,0.01,n/a,n/a,-99.99,Henriksen +1-Wire,2013-10-07 02:56:00,
2013-10-06 23:02:00,55.5,54.9,30.11,NE,43,0.0,14.1,97,0.01,n/a,n/a,-99.99,Henriksen +1-Wire,2013-10-07 03:02:00,
2013-10-06 23:08:00,55.5,54.9,30.10,NNE,26,1.1,41.6,97,0.01,n/a,n/a,-99.99,Henriksen +1-Wire,2013-10-07 03:08:00,
2013-10-06 23:14:00,55.6,55.0,30.10,North,5,0.0,41.6,97,0.01,n/a,n/a,-99.99,Henriksen +1-Wire,2013-10-07 03:14:00,
2013-10-06 23:20:00,55.7,54.9,30.10,NW,317,0.0,0.3,97,0.01,n/a,n/a,-99.99,Henriksen +1-Wire,2013-10-07 03:20:00,
2013-10-06 23:26:00,55.8,55.0,30.10,NNE,15,0.0,0.0,97,0.01,n/a,n/a,-99.99,Henriksen +1-Wire,2013-10-07 03:26:00,
2013-10-06 23:32:00,55.8,55.1,30.10,NW,320,0.0,1.9,97,0.01,n/a,n/a,-99.99,Henriksen +1-Wire,2013-10-07 03:32:00,
2013-10-06 23:38:00,55.9,55.1,30.10,NW,325,0.0,1.6,97,0.01,n/a,n/a,-99.99,Henriksen +1-Wire,2013-10-07 03:38:00,
2013-10-06 23:44:00,55.9,55.3,30.10,North,350,0.0,2.2,97,0.01,n/a,n/a,-99.99,Henriksen +1-Wire,2013-10-07 03:44:00,
2013-10-06 23:50:00,55.9,55.2,30.09,NNW,333,0.0,2.2,97,0.00,n/a,n/a,-99.99,Henriksen +1-Wire,2013-10-07 03:50:00,
2013-10-06 23:56:00,55.9,55.2,30.09,NNW,330,0.0,1.6,97,0.01,n/a,n/a,-99.99,Henriksen +1-Wire,2013-10-07 03:56:00,